Time,TemperatureF,DewpointF,PressureIn,WindDirection,WindDirectionDegrees,WindSpeedMPH,WindSpeedGustMPH,Humidity,HourlyPrecipIn,Conditions,Clouds,dailyrainin,SoftwareType,DateUTC
2013-01-12 00:02:00,44.6,38.1,30.17,ESE,103,3.0,8.0,78,0.00,,,0.00,meteohub,2013-01-12 08:02:00,
2013-01-12 00:07:00,44.4,38.3,30.17,SE,143,1.0,8.0,79,0.00,,,0.00,meteohub,2013-01-12 08:07:00,
2013-01-12 00:12:00,44.4,37.9,30.17,NE,36,5.0,8.0,78,0.00,,,0.00,meteohub,2013-01-12 08:12:00,
2013-01-12 00:17:00,44.4,38.3,30.17,SSW,205,3.0,9.0,79,0.00,,,0.00,meteohub,2013-01-12 08:17:00,
2013-01-12 00:22:00,44.4,38.3,30.17,North,9,2.0,9.0,79,0.00,,,0.00,meteohub,2013-01-12 08:22:00,
2013-01-12 00:27:00,44.4,38.3,30.17,NNE,27,2.0,9.0,79,0.00,,,0.00,meteohub,2013-01-12 08:27:00,
2013-01-12 00:32:00,44.2,38.1,30.17,SE,142,2.0,9.0,79,0.00,,,0.00,meteohub,2013-01-12 08:32:00,
2013-01-12 00:37:00,44.1,38.7,30.17,North,356,4.0,8.0,81,0.00,,,0.00,meteohub,2013-01-12 08:37:00,
2013-01-12 00:42:00,44.1,38.7,30.17,ESE,117,1.0,7.0,81,0.00,,,0.00,meteohub,2013-01-12 08:42:00,
2013-01-12 00:47:00,43.9,38.5,30.17,ESE,120,0.0,6.0,81,0.00,,,0.00,meteohub,2013-01-12 08:47:00,
2013-01-12 00:52:00,43.7,38.5,30.16,NE,34,1.0,6.0,82,0.00,,,0.00,meteohub,2013-01-12 08:52:00,
2013-01-12 00:57:00,43.7,38.3,30.16,ESE,109,1.0,4.0,81,0.00,,,0.00,meteohub,2013-01-12 08:57:00,
2013-01-12 01:02:00,43.5,38.5,30.17,ESE,105,0.0,4.0,82,0.00,,,0.00,meteohub,2013-01-12 09:02:00,
2013-01-12 01:07:00,43.5,38.7,30.17,ENE,63,2.0,3.0,83,0.00,,,0.00,meteohub,2013-01-12 09:07:00,
2013-01-12 01:12:00,43.3,38.5,30.17,ESE,117,0.0,6.0,83,0.00,,,0.00,meteohub,2013-01-12 09:12:00,
2013-01-12 01:17:00,43.3,38.5,30.17,SE,134,0.0,6.0,83,0.00,,,0.00,meteohub,2013-01-12 09:17:00,
2013-01-12 01:22:00,43.2,38.3,30.17,SE,134,0.0,6.0,83,0.00,,,0.00,meteohub,2013-01-12 09:22:00,
2013-01-12 01:27:00,43.0,38.1,30.17,SE,136,0.0,1.0,83,0.00,,,0.00,meteohub,2013-01-12 09:27:00,
2013-01-12 01:32:00,43.0,38.1,30.17,NNE,15,0.0,1.0,83,0.00,,,0.00,meteohub,2013-01-12 09:32:00,
2013-01-12 01:37:00,42.8,37.9,30.18,NNE,15,1.0,1.0,83,0.00,,,0.00,meteohub,2013-01-12 09:37:00,
2013-01-12 01:42:00,42.4,37.6,30.18,NNE,13,0.0,1.0,83,0.00,,,0.00,meteohub,2013-01-12 09:42:00,
2013-01-12 01:47:00,42.3,37.8,30.18,NNE,15,0.0,1.0,84,0.00,,,0.00,meteohub,2013-01-12 09:47:00,
2013-01-12 01:52:00,42.3,37.8,30.18,ENE,63,1.0,1.0,84,0.00,,,0.00,meteohub,2013-01-12 09:52:00,
2013-01-12 01:57:00,42.3,38.1,30.18,ESE,108,0.0,2.0,85,0.00,,,0.00,meteohub,2013-01-12 09:57:00,
2013-01-12 02:02:00,42.4,38.3,30.18,NNW,335,1.0,2.0,85,0.00,,,0.00,meteohub,2013-01-12 10:02:00,
2013-01-12 02:07:00,42.4,37.9,30.18,NNW,336,0.0,2.0,84,0.00,,,0.00,meteohub,2013-01-12 10:07:00,
2013-01-12 02:12:00,42.3,37.8,30.18,NNW,335,1.0,1.0,84,0.00,,,0.00,meteohub,2013-01-12 10:12:00,
2013-01-12 02:18:00,41.9,37.8,30.18,NNW,343,0.0,1.0,85,0.00,,,0.00,meteohub,2013-01-12 10:18:00,
2013-01-12 02:23:00,41.4,37.2,30.19,NNW,342,0.0,1.0,85,0.00,,,0.00,meteohub,2013-01-12 10:23:00,
2013-01-12 02:28:00,41.2,37.4,30.18,NNW,342,0.0,1.0,86,0.00,,,0.00,meteohub,2013-01-12 10:28:00,
2013-01-12 02:33:00,40.8,37.0,30.18,NNW,342,0.0,1.0,86,0.00,,,0.00,meteohub,2013-01-12 10:33:00,
2013-01-12 02:38:00,40.6,37.0,30.18,NNW,336,0.0,0.0,87,0.00,,,0.00,meteohub,2013-01-12 10:38:00,
2013-01-12 02:43:00,40.5,36.9,30.18,NNW,340,0.0,2.0,87,0.00,,,0.00,meteohub,2013-01-12 10:43:00,
2013-01-12 02:48:00,40.3,37.0,30.18,NNW,328,0.0,2.0,88,0.00,,,0.00,meteohub,2013-01-12 10:48:00,
2013-01-12 02:53:00,40.1,36.9,30.18,SW,219,1.0,2.0,88,0.00,,,0.00,meteohub,2013-01-12 10:53:00,
2013-01-12 02:59:00,40.1,36.9,30.18,WNW,300,1.0,1.0,88,0.00,,,0.00,meteohub,2013-01-12 10:59:00,
2013-01-12 03:04:00,39.9,36.7,30.19,WNW,300,0.0,1.0,88,0.00,,,0.00,meteohub,2013-01-12 11:04:00,
2013-01-12 03:09:00,39.7,36.7,30.19,WNW,300,0.0,1.0,89,0.00,,,0.00,meteohub,2013-01-12 11:09:00,
2013-01-12 03:14:00,39.9,36.7,30.19,WNW,300,0.0,1.0,88,0.00,,,0.00,meteohub,2013-01-12 11:14:00,
2013-01-12 03:19:00,39.9,36.7,30.19,WNW,300,0.0,1.0,88,0.00,,,0.00,meteohub,2013-01-12 11:19:00,
2013-01-12 03:25:00,39.7,36.7,30.19,WNW,300,0.0,1.0,89,0.00,,,0.00,meteohub,2013-01-12 11:25:00,
2013-01-12 03:30:00,39.9,36.7,30.19,WNW,300,0.0,1.0,88,0.00,,,0.00,meteohub,2013-01-12 11:30:00,
2013-01-12 03:35:00,39.7,36.5,30.19,WNW,300,1.0,1.0,88,0.00,,,0.00,meteohub,2013-01-12 11:35:00,
2013-01-12 03:40:00,39.6,36.3,30.19,NW,308,0.0,1.0,88,0.00,,,0.00,meteohub,2013-01-12 11:40:00,
2013-01-12 03:45:00,39.6,36.5,30.19,NW,308,0.0,1.0,89,0.00,,,0.00,meteohub,2013-01-12 11:45:00,
2013-01-12 03:50:00,39.6,36.5,30.19,WNW,298,1.0,1.0,89,0.00,,,0.00,meteohub,2013-01-12 11:50:00,
2013-01-12 03:55:00,39.6,36.5,30.19,WNW,300,1.0,1.0,89,0.00,,,0.00,meteohub,2013-01-12 11:55:00,
2013-01-12 04:00:00,39.6,36.5,30.19,NW,308,1.0,1.0,89,0.00,,,0.00,meteohub,2013-01-12 12:00:00,
2013-01-12 04:05:00,39.6,36.5,30.19,NW,305,0.0,2.0,89,0.00,,,0.00,meteohub,2013-01-12 12:05:00,
2013-01-12 04:11:00,39.6,36.3,30.19,NW,305,0.0,2.0,88,0.00,,,0.00,meteohub,2013-01-12 12:11:00,
2013-01-12 04:16:00,39.2,36.3,30.19,WNW,293,1.0,2.0,89,0.00,,,0.00,meteohub,2013-01-12 12:16:00,
2013-01-12 04:21:00,39.0,36.1,30.19,NW,324,1.0,1.0,89,0.00,,,0.00,meteohub,2013-01-12 12:21:00,
2013-01-12 04:26:00,38.8,36.1,30.18,WSW,243,1.0,2.0,90,0.00,,,0.00,meteohub,2013-01-12 12:26:00,
2013-01-12 04:31:00,38.8,36.1,30.18,NW,319,2.0,2.0,90,0.00,,,0.00,meteohub,2013-01-12 12:31:00,
2013-01-12 04:36:00,38.8,36.1,30.19,NW,307,1.0,2.0,90,0.00,,,0.00,meteohub,2013-01-12 12:36:00,
2013-01-12 04:41:00,39.0,36.1,30.19,NW,305,1.0,2.0,89,0.00,,,0.00,meteohub,2013-01-12 12:41:00,
2013-01-12 04:46:00,39.2,36.3,30.19,WNW,285,0.0,2.0,89,0.00,,,0.00,meteohub,2013-01-12 12:46:00,
2013-01-12 04:51:00,39.0,36.1,30.18,NW,318,0.0,2.0,89,0.00,,,0.00,meteohub,2013-01-12 12:51:00,
2013-01-12 04:57:00,38.8,36.0,30.18,NW,314,0.0,2.0,89,0.00,,,0.00,meteohub,2013-01-12 12:57:00,
2013-01-12 05:02:00,38.8,36.0,30.18,WNW,293,0.0,1.0,89,0.00,,,0.00,meteohub,2013-01-12 13:02:00,
2013-01-12 05:07:00,38.7,35.8,30.18,WNW,302,0.0,1.0,89,0.00,,,0.00,meteohub,2013-01-12 13:07:00,
2013-01-12 05:12:00,38.3,35.4,30.18,WNW,302,0.0,1.0,89,0.00,,,0.00,meteohub,2013-01-12 13:12:00,
2013-01-12 05:17:00,38.1,35.2,30.19,NW,309,0.0,1.0,89,0.00,,,0.00,meteohub,2013-01-12 13:17:00,
2013-01-12 05:22:00,37.8,34.9,30.19,NW,321,0.0,1.0,89,0.00,,,0.00,meteohub,2013-01-12 13:22:00,
2013-01-12 05:27:00,37.9,35.2,30.19,NW,306,1.0,1.0,90,0.00,,,0.00,meteohub,2013-01-12 13:27:00,
2013-01-12 05:32:00,37.8,34.9,30.19,NNW,343,1.0,1.0,89,0.00,,,0.00,meteohub,2013-01-12 13:32:00,
2013-01-12 05:37:00,37.6,34.7,30.20,West,263,0.0,2.0,89,0.00,,,0.00,meteohub,2013-01-12 13:37:00,
2013-01-12 05:42:00,37.8,34.9,30.19,West,270,0.0,2.0,89,0.00,,,0.00,meteohub,2013-01-12 13:42:00,
2013-01-12 05:47:00,37.9,34.7,30.20,WSW,246,0.0,2.0,88,0.00,,,0.00,meteohub,2013-01-12 13:47:00,
2013-01-12 05:52:00,37.9,34.7,30.20,WNW,297,0.0,1.0,88,0.00,,,0.00,meteohub,2013-01-12 13:52:00,
2013-01-12 05:57:00,37.9,34.7,30.20,NW,304,1.0,1.0,88,0.00,,,0.00,meteohub,2013-01-12 13:57:00,
2013-01-12 06:02:00,38.1,34.9,30.21,NNW,330,0.0,1.0,88,0.00,,,0.00,meteohub,2013-01-12 14:02:00,
2013-01-12 06:08:00,38.1,34.5,30.21,NNW,329,1.0,1.0,87,0.00,,,0.00,meteohub,2013-01-12 14:08:00,
2013-01-12 06:13:00,37.9,34.7,30.21,NNW,328,0.0,1.0,88,0.00,,,0.00,meteohub,2013-01-12 14:13:00,
2013-01-12 06:18:00,37.8,34.5,30.21,NNW,328,0.0,1.0,88,0.00,,,0.00,meteohub,2013-01-12 14:18:00,
2013-01-12 06:23:00,37.6,34.3,30.22,NW,322,0.0,1.0,88,0.00,,,0.00,meteohub,2013-01-12 14:23:00,
2013-01-12 06:28:00,37.6,34.7,30.22,NW,321,0.0,1.0,89,0.00,,,0.00,meteohub,2013-01-12 14:28:00,
2013-01-12 06:33:00,37.4,34.5,30.22,NW,322,0.0,1.0,89,0.00,,,0.00,meteohub,2013-01-12 14:33:00,
2013-01-12 06:38:00,37.2,34.5,30.22,NW,322,0.0,1.0,90,0.00,,,0.00,meteohub,2013-01-12 14:38:00,
2013-01-12 06:43:00,37.6,34.9,30.22,NW,319,0.0,1.0,90,0.00,,,0.00,meteohub,2013-01-12 14:43:00,
2013-01-12 06:49:00,37.8,35.4,30.22,NNW,329,0.0,1.0,91,0.00,,,0.00,meteohub,2013-01-12 14:49:00,
2013-01-12 06:54:00,37.6,34.7,30.22,NNW,328,0.0,1.0,89,0.00,,,0.00,meteohub,2013-01-12 14:54:00,
2013-01-12 06:59:00,37.2,34.5,30.22,NNW,329,0.0,1.0,90,0.00,,,0.00,meteohub,2013-01-12 14:59:00,
2013-01-12 07:04:00,37.0,34.7,30.22,NNW,328,0.0,1.0,91,0.00,,,0.00,meteohub,2013-01-12 15:04:00,
2013-01-12 07:09:00,37.0,34.9,30.22,NNW,328,0.0,1.0,92,0.00,,,0.00,meteohub,2013-01-12 15:09:00,
2013-01-12 07:14:00,37.2,35.1,30.22,NNW,329,0.0,1.0,92,0.00,,,0.00,meteohub,2013-01-12 15:14:00,
2013-01-12 07:19:00,36.9,34.5,30.22,NNW,329,1.0,1.0,91,0.00,,,0.00,meteohub,2013-01-12 15:19:00,
2013-01-12 07:24:00,36.7,34.5,30.22,NNW,328,0.0,1.0,92,0.00,,,0.00,meteohub,2013-01-12 15:24:00,
2013-01-12 07:29:00,37.0,35.2,30.22,NNW,328,0.0,1.0,93,0.00,,,0.00,meteohub,2013-01-12 15:29:00,
2013-01-12 07:34:00,37.0,34.9,30.23,NNW,328,0.0,1.0,92,0.00,,,0.00,meteohub,2013-01-12 15:34:00,
2013-01-12 07:39:00,37.0,34.9,30.23,NNW,329,0.0,1.0,92,0.00,,,0.00,meteohub,2013-01-12 15:39:00,
2013-01-12 07:45:00,36.9,34.7,30.23,NNW,329,0.0,0.0,92,0.00,,,0.00,meteohub,2013-01-12 15:45:00,
2013-01-12 07:50:00,37.4,35.8,30.23,NNW,328,0.0,0.0,94,0.00,,,0.00,meteohub,2013-01-12 15:50:00,
2013-01-12 07:55:00,38.1,36.0,30.23,NW,316,0.0,0.0,92,0.00,,,0.00,meteohub,2013-01-12 15:55:00,
2013-01-12 08:00:00,38.7,36.3,30.23,NNW,338,0.0,1.0,91,0.00,,,0.00,meteohub,2013-01-12 16:00:00,
2013-01-12 08:05:00,38.7,36.0,30.23,NNW,338,0.0,1.0,90,0.00,,,0.00,meteohub,2013-01-12 16:05:00,
2013-01-12 08:10:00,38.8,36.1,30.23,NNW,338,0.0,1.0,90,0.00,,,0.00,meteohub,2013-01-12 16:10:00,
2013-01-12 08:15:00,38.8,36.1,30.23,NNW,338,0.0,1.0,90,0.00,,,0.00,meteohub,2013-01-12 16:15:00,
2013-01-12 08:20:00,39.0,36.3,30.23,NNW,338,0.0,1.0,90,0.00,,,0.00,meteohub,2013-01-12 16:20:00,
2013-01-12 08:26:00,39.2,36.5,30.23,NNW,338,0.0,1.0,90,0.00,,,0.00,meteohub,2013-01-12 16:26:00,
2013-01-12 08:31:00,39.6,36.9,30.23,ESE,104,0.0,1.0,90,0.00,,,0.00,meteohub,2013-01-12 16:31:00,
2013-01-12 08:36:00,40.5,37.4,30.23,SE,138,0.0,2.0,89,0.00,,,0.00,meteohub,2013-01-12 16:36:00,
2013-01-12 08:41:00,41.5,37.9,30.24,SE,124,0.0,2.0,87,0.00,,,0.00,meteohub,2013-01-12 16:41:00,
2013-01-12 08:46:00,42.3,38.1,30.24,SE,143,1.0,2.0,85,0.00,,,0.00,meteohub,2013-01-12 16:46:00,
2013-01-12 08:51:00,43.0,38.1,30.24,SE,142,1.0,3.0,83,0.00,,,0.00,meteohub,2013-01-12 16:51:00,
2013-01-12 08:56:00,43.3,37.9,30.24,ESE,117,2.0,3.0,81,0.00,,,0.00,meteohub,2013-01-12 16:56:00,
2013-01-12 09:01:00,43.7,37.0,30.24,SSE,150,1.0,4.0,77,0.00,,,0.00,meteohub,2013-01-12 17:01:00,
2013-01-12 09:06:00,44.1,37.0,30.24,SSE,150,3.0,4.0,76,0.00,,,0.00,meteohub,2013-01-12 17:06:00,
2013-01-12 09:11:00,44.2,37.2,30.24,East,90,2.0,4.0,76,0.00,,,0.00,meteohub,2013-01-12 17:11:00,
2013-01-12 09:16:00,44.4,36.7,30.25,SSE,162,2.0,4.0,74,0.00,,,0.00,meteohub,2013-01-12 17:16:00,
2013-01-12 09:22:00,44.8,34.9,30.24,SW,215,1.0,4.0,68,0.00,,,0.00,meteohub,2013-01-12 17:22:00,
2013-01-12 09:27:00,45.0,35.4,30.24,South,170,3.0,4.0,69,0.00,,,0.00,meteohub,2013-01-12 17:27:00,
2013-01-12 09:32:00,45.1,34.9,30.24,SE,131,2.0,4.0,67,0.00,,,0.00,meteohub,2013-01-12 17:32:00,
2013-01-12 09:37:00,45.1,34.5,30.24,ESE,122,3.0,5.0,66,0.00,,,0.00,meteohub,2013-01-12 17:37:00,
2013-01-12 09:42:00,45.3,32.7,30.24,SSW,195,2.0,6.0,61,0.00,,,0.00,meteohub,2013-01-12 17:42:00,
2013-01-12 09:47:00,45.5,32.0,30.24,SSE,160,4.0,6.0,59,0.00,,,0.00,meteohub,2013-01-12 17:47:00,
2013-01-12 09:52:00,45.7,31.8,30.24,SSE,163,3.0,6.0,58,0.00,,,0.00,meteohub,2013-01-12 17:52:00,
2013-01-12 09:57:00,46.0,31.6,30.24,East,84,1.0,5.0,57,0.00,,,0.00,meteohub,2013-01-12 17:57:00,
2013-01-12 10:02:00,46.0,30.4,30.24,SE,138,1.0,6.0,54,0.00,,,0.00,meteohub,2013-01-12 18:02:00,
2013-01-12 10:07:00,46.6,31.3,30.24,SSE,167,1.0,6.0,55,0.00,,,0.00,meteohub,2013-01-12 18:07:00,
2013-01-12 10:12:00,46.9,28.8,30.24,South,188,3.0,6.0,49,0.00,,,0.00,meteohub,2013-01-12 18:12:00,
2013-01-12 10:17:00,47.1,28.4,30.24,SE,145,4.0,4.0,48,0.00,,,0.00,meteohub,2013-01-12 18:17:00,
2013-01-12 10:22:00,47.5,27.1,30.24,SSE,160,0.0,5.0,45,0.00,,,0.00,meteohub,2013-01-12 18:22:00,
2013-01-12 10:27:00,47.7,25.2,30.24,SSE,167,5.0,5.0,41,0.00,,,0.00,meteohub,2013-01-12 18:27:00,
2013-01-12 10:32:00,47.8,25.9,30.24,ESE,110,0.0,5.0,42,0.00,,,0.00,meteohub,2013-01-12 18:32:00,
2013-01-12 10:37:00,48.0,26.6,30.24,ENE,67,1.0,5.0,43,0.00,,,0.00,meteohub,2013-01-12 18:37:00,
2013-01-12 10:42:00,47.8,25.9,30.24,SE,127,3.0,5.0,42,0.00,,,0.00,meteohub,2013-01-12 18:42:00,
2013-01-12 10:47:00,48.0,26.1,30.23,WSW,254,0.0,5.0,42,0.00,,,0.00,meteohub,2013-01-12 18:47:00,
2013-01-12 10:52:00,48.4,25.7,30.23,East,100,1.0,5.0,41,0.00,,,0.00,meteohub,2013-01-12 18:52:00,
2013-01-12 10:57:00,48.6,25.9,30.23,East,98,0.0,5.0,41,0.00,,,0.00,meteohub,2013-01-12 18:57:00,
2013-01-12 11:02:00,48.7,26.1,30.23,ENE,74,1.0,4.0,41,0.00,,,0.00,meteohub,2013-01-12 19:02:00,
2013-01-12 11:07:00,48.6,26.4,30.23,NE,41,1.0,5.0,42,0.00,,,0.00,meteohub,2013-01-12 19:07:00,
2013-01-12 11:12:00,48.6,25.9,30.22,West,274,0.0,6.0,41,0.00,,,0.00,meteohub,2013-01-12 19:12:00,
2013-01-12 11:17:00,48.9,27.3,30.22,NE,40,2.0,6.0,43,0.00,,,0.00,meteohub,2013-01-12 19:17:00,
2013-01-12 11:22:00,49.1,27.0,30.22,ESE,119,3.0,5.0,42,0.00,,,0.00,meteohub,2013-01-12 19:22:00,
2013-01-12 11:27:00,49.1,27.0,30.22,East,101,3.0,7.0,42,0.00,,,0.00,meteohub,2013-01-12 19:27:00,
2013-01-12 11:32:00,49.1,27.5,30.21,East,98,1.0,7.0,43,0.00,,,0.00,meteohub,2013-01-12 19:32:00,
2013-01-12 11:37:00,49.5,26.8,30.21,East,84,0.0,7.0,41,0.00,,,0.00,meteohub,2013-01-12 19:37:00,
2013-01-12 11:42:00,49.6,27.0,30.21,SE,135,0.0,6.0,41,0.00,,,0.00,meteohub,2013-01-12 19:42:00,
2013-01-12 11:47:00,49.6,27.0,30.20,SE,138,1.0,4.0,41,0.00,,,0.00,meteohub,2013-01-12 19:47:00,
2013-01-12 11:52:00,49.6,28.6,30.20,ENE,77,3.0,5.0,44,0.00,,,0.00,meteohub,2013-01-12 19:52:00,
2013-01-12 11:57:00,49.6,28.6,30.20,East,99,3.0,5.0,44,0.00,,,0.00,meteohub,2013-01-12 19:57:00,
2013-01-12 12:02:00,49.3,28.8,30.19,SW,236,0.0,5.0,45,0.00,,,0.00,meteohub,2013-01-12 20:02:00,
2013-01-12 12:07:00,49.3,28.8,30.19,ESE,104,3.0,5.0,45,0.00,,,0.00,meteohub,2013-01-12 20:07:00,
2013-01-12 12:12:00,49.8,28.8,30.19,South,181,2.0,5.0,44,0.00,,,0.00,meteohub,2013-01-12 20:12:00,
2013-01-12 12:17:00,50.2,29.7,30.19,NNW,328,3.0,5.0,45,0.00,,,0.00,meteohub,2013-01-12 20:17:00,
2013-01-12 12:22:00,50.4,29.3,30.19,NNE,33,0.0,5.0,44,0.00,,,0.00,meteohub,2013-01-12 20:22:00,
2013-01-12 12:27:00,50.5,27.7,30.19,ESE,122,3.0,4.0,41,0.00,,,0.00,meteohub,2013-01-12 20:27:00,
2013-01-12 12:32:00,50.4,27.0,30.18,North,6,3.0,4.0,40,0.00,,,0.00,meteohub,2013-01-12 20:32:00,
2013-01-12 12:37:00,50.0,26.6,30.18,NNE,26,2.0,7.0,40,0.00,,,0.00,meteohub,2013-01-12 20:37:00,
2013-01-12 12:42:00,49.8,27.1,30.18,NNE,16,3.0,7.0,41,0.00,,,0.00,meteohub,2013-01-12 20:42:00,
2013-01-12 12:47:00,49.8,27.1,30.18,North,356,3.0,7.0,41,0.00,,,0.00,meteohub,2013-01-12 20:47:00,
2013-01-12 12:52:00,50.0,26.1,30.17,ESE,103,2.0,6.0,39,0.00,,,0.00,meteohub,2013-01-12 20:52:00,
2013-01-12 12:57:00,50.4,25.7,30.17,ESE,104,4.0,9.0,38,0.00,,,0.00,meteohub,2013-01-12 20:57:00,
2013-01-12 13:02:00,50.4,26.4,30.17,East,84,6.0,9.0,39,0.00,,,0.00,meteohub,2013-01-12 21:02:00,
2013-01-12 13:07:00,50.4,26.4,30.17,SE,132,0.0,9.0,39,0.00,,,0.00,meteohub,2013-01-12 21:07:00,
2013-01-12 13:12:00,50.7,27.3,30.17,South,190,2.0,8.0,40,0.00,,,0.00,meteohub,2013-01-12 21:12:00,
2013-01-12 13:17:00,51.1,27.0,30.17,ESE,114,4.0,8.0,39,0.00,,,0.00,meteohub,2013-01-12 21:17:00,
2013-01-12 13:22:00,50.5,27.1,30.17,ENE,72,3.0,6.0,40,0.00,,,0.00,meteohub,2013-01-12 21:22:00,
2013-01-12 13:27:00,50.4,27.5,30.17,East,87,1.0,6.0,41,0.00,,,0.00,meteohub,2013-01-12 21:27:00,
2013-01-12 13:32:00,50.5,26.4,30.17,ESE,103,0.0,6.0,39,0.00,,,0.00,meteohub,2013-01-12 21:32:00,
2013-01-12 13:37:00,50.4,26.4,30.17,SSW,204,2.0,6.0,39,0.00,,,0.00,meteohub,2013-01-12 21:37:00,
2013-01-12 13:42:00,50.4,27.0,30.17,ESE,120,2.0,7.0,40,0.00,,,0.00,meteohub,2013-01-12 21:42:00,
2013-01-12 13:48:00,50.2,26.8,30.16,East,87,3.0,7.0,40,0.00,,,0.00,meteohub,2013-01-12 21:48:00,
2013-01-12 13:53:00,50.2,27.3,30.16,SSE,167,0.0,8.0,41,0.00,,,0.00,meteohub,2013-01-12 21:53:00,
2013-01-12 13:58:00,50.5,27.7,30.16,East,80,1.0,8.0,41,0.00,,,0.00,meteohub,2013-01-12 21:58:00,
2013-01-12 14:03:00,50.5,27.1,30.16,ESE,115,5.0,8.0,40,0.00,,,0.00,meteohub,2013-01-12 22:03:00,
2013-01-12 14:08:00,50.4,26.4,30.16,East,82,1.0,6.0,39,0.00,,,0.00,meteohub,2013-01-12 22:08:00,
2013-01-12 14:13:00,50.4,27.0,30.16,East,81,2.0,6.0,40,0.00,,,0.00,meteohub,2013-01-12 22:13:00,
2013-01-12 14:18:00,50.5,26.4,30.16,South,176,0.0,6.0,39,0.00,,,0.00,meteohub,2013-01-12 22:18:00,
2013-01-12 14:23:00,50.4,25.7,30.16,ESE,103,1.0,5.0,38,0.00,,,0.00,meteohub,2013-01-12 22:23:00,
2013-01-12 14:29:00,50.2,25.5,30.16,SE,145,1.0,6.0,38,0.00,,,0.00,meteohub,2013-01-12 22:29:00,
2013-01-12 14:34:00,50.2,25.0,30.15,NNW,346,2.0,6.0,37,0.00,,,0.00,meteohub,2013-01-12 22:34:00,
2013-01-12 14:39:00,50.2,25.5,30.15,ENE,67,2.0,5.0,38,0.00,,,0.00,meteohub,2013-01-12 22:39:00,
2013-01-12 14:44:00,49.5,24.3,30.15,East,99,2.0,5.0,37,0.00,,,0.00,meteohub,2013-01-12 22:44:00,
2013-01-12 14:49:00,49.3,24.8,30.15,East,94,2.0,4.0,38,0.00,,,0.00,meteohub,2013-01-12 22:49:00,
2013-01-12 14:54:00,49.1,23.9,30.15,ESE,113,2.0,4.0,37,0.00,,,0.00,meteohub,2013-01-12 22:54:00,
2013-01-12 14:59:00,48.9,23.7,30.15,ESE,103,2.0,4.0,37,0.00,,,0.00,meteohub,2013-01-12 22:59:00,
2013-01-12 15:05:00,48.7,23.0,30.15,NNW,346,4.0,4.0,36,0.00,,,0.00,meteohub,2013-01-12 23:05:00,
2013-01-12 15:10:00,48.4,24.6,30.15,West,277,0.0,4.0,39,0.00,,,0.00,meteohub,2013-01-12 23:10:00,
2013-01-12 15:15:00,48.4,25.2,30.15,NNE,22,0.0,5.0,40,0.00,,,0.00,meteohub,2013-01-12 23:15:00,
2013-01-12 15:20:00,48.4,25.7,30.15,WNW,298,1.0,5.0,41,0.00,,,0.00,meteohub,2013-01-12 23:20:00,
2013-01-12 15:25:00,48.4,27.0,30.14,NW,323,0.0,4.0,43,0.00,,,0.00,meteohub,2013-01-12 23:25:00,
2013-01-12 15:30:00,48.4,27.0,30.14,NNE,27,0.0,4.0,43,0.00,,,0.00,meteohub,2013-01-12 23:30:00,
2013-01-12 15:35:00,48.2,28.9,30.14,NNW,336,2.0,5.0,47,0.00,,,0.00,meteohub,2013-01-12 23:35:00,
2013-01-12 15:41:00,48.4,29.7,30.14,North,356,0.0,5.0,48,0.00,,,0.00,meteohub,2013-01-12 23:41:00,
2013-01-12 15:46:00,48.4,30.0,30.14,NW,323,1.0,3.0,49,0.00,,,0.00,meteohub,2013-01-12 23:46:00,
2013-01-12 15:51:00,48.2,30.0,30.14,NNW,340,0.0,3.0,49,0.00,,,0.00,meteohub,2013-01-12 23:51:00,
2013-01-12 15:56:00,48.0,30.2,30.14,NW,326,2.0,4.0,50,0.00,,,0.00,meteohub,2013-01-12 23:56:00,
2013-01-12 16:01:00,48.0,29.8,30.14,NNW,336,3.0,4.0,49,0.00,,,0.00,meteohub,2013-01-13 00:01:00,
2013-01-12 16:06:00,47.8,30.0,30.14,NNW,340,3.0,5.0,50,0.00,,,0.00,meteohub,2013-01-13 00:06:00,
2013-01-12 16:12:00,47.7,29.5,30.14,North,6,2.0,5.0,49,0.00,,,0.00,meteohub,2013-01-13 00:12:00,
2013-01-12 16:17:00,47.5,29.3,30.14,NW,324,0.0,5.0,49,0.00,,,0.00,meteohub,2013-01-13 00:17:00,
2013-01-12 16:22:00,47.3,30.0,30.14,NNW,338,2.0,4.0,51,0.00,,,0.00,meteohub,2013-01-13 00:22:00,
2013-01-12 16:27:00,47.1,29.5,30.14,NNW,346,0.0,4.0,50,0.00,,,0.00,meteohub,2013-01-13 00:27:00,
2013-01-12 16:32:00,47.1,30.9,30.14,NNW,346,0.0,4.0,53,0.00,,,0.00,meteohub,2013-01-13 00:32:00,
2013-01-12 16:37:00,46.9,31.6,30.14,NNW,347,0.0,3.0,55,0.00,,,0.00,meteohub,2013-01-13 00:37:00,
2013-01-12 16:42:00,46.6,31.6,30.14,NNW,347,0.0,2.0,56,0.00,,,0.00,meteohub,2013-01-13 00:42:00,
2013-01-12 16:47:00,46.0,31.6,30.14,NNW,347,0.0,1.0,57,0.00,,,0.00,meteohub,2013-01-13 00:47:00,
2013-01-12 16:52:00,45.9,32.0,30.14,NNW,347,0.0,1.0,58,0.00,,,0.00,meteohub,2013-01-13 00:52:00,
2013-01-12 16:57:00,45.3,32.2,30.14,NNW,347,0.0,1.0,60,0.00,,,0.00,meteohub,2013-01-13 00:57:00,
2013-01-12 17:02:00,45.0,32.4,30.14,NNW,347,0.0,1.0,61,0.00,,,0.00,meteohub,2013-01-13 01:02:00,
2013-01-12 17:08:00,44.4,32.2,30.14,NNW,347,0.0,0.0,62,0.00,,,0.00,meteohub,2013-01-13 01:08:00,
2013-01-12 17:13:00,44.1,32.4,30.14,NNW,347,0.0,0.0,63,0.00,,,0.00,meteohub,2013-01-13 01:13:00,
2013-01-12 17:18:00,43.9,32.5,30.14,NNW,347,0.0,1.0,64,0.00,,,0.00,meteohub,2013-01-13 01:18:00,
2013-01-12 17:23:00,43.7,32.7,30.14,NNW,347,0.0,1.0,65,0.00,,,0.00,meteohub,2013-01-13 01:23:00,
2013-01-12 17:28:00,43.7,33.1,30.14,NNW,347,0.0,1.0,66,0.00,,,0.00,meteohub,2013-01-13 01:28:00,
2013-01-12 17:33:00,43.5,32.9,30.14,NNW,347,0.0,0.0,66,0.00,,,0.00,meteohub,2013-01-13 01:33:00,
2013-01-12 17:39:00,43.5,32.9,30.15,NNW,347,0.0,1.0,66,0.00,,,0.00,meteohub,2013-01-13 01:39:00,
2013-01-12 17:44:00,43.7,33.4,30.15,NNW,347,0.0,1.0,67,0.00,,,0.00,meteohub,2013-01-13 01:44:00,
2013-01-12 17:49:00,43.9,33.6,30.15,NNW,347,1.0,1.0,67,0.00,,,0.00,meteohub,2013-01-13 01:49:00,
2013-01-12 17:54:00,43.7,33.4,30.15,NNW,347,0.0,1.0,67,0.00,,,0.00,meteohub,2013-01-13 01:54:00,
2013-01-12 17:59:00,43.7,33.4,30.15,NNW,347,0.0,1.0,67,0.00,,,0.00,meteohub,2013-01-13 01:59:00,
2013-01-12 18:04:00,43.9,34.0,30.15,NNW,347,0.0,1.0,68,0.00,,,0.00,meteohub,2013-01-13 02:04:00,
2013-01-12 18:09:00,43.7,33.8,30.15,NNW,347,0.0,1.0,68,0.00,,,0.00,meteohub,2013-01-13 02:09:00,
2013-01-12 18:14:00,43.9,34.0,30.14,NNW,347,0.0,1.0,68,0.00,,,0.00,meteohub,2013-01-13 02:14:00,
2013-01-12 18:19:00,43.9,34.0,30.15,NNW,347,0.0,1.0,68,0.00,,,0.00,meteohub,2013-01-13 02:19:00,
2013-01-12 18:25:00,44.1,34.2,30.15,NNW,347,0.0,1.0,68,0.00,,,0.00,meteohub,2013-01-13 02:25:00,
2013-01-12 18:30:00,43.9,34.0,30.15,NNW,347,0.0,1.0,68,0.00,,,0.00,meteohub,2013-01-13 02:30:00,
2013-01-12 18:35:00,44.1,34.5,30.15,NNW,347,1.0,0.0,69,0.00,,,0.00,meteohub,2013-01-13 02:35:00,
2013-01-12 18:40:00,44.1,34.5,30.15,NNW,347,0.0,1.0,69,0.00,,,0.00,meteohub,2013-01-13 02:40:00,
2013-01-12 18:45:00,44.1,34.5,30.14,NNW,347,1.0,1.0,69,0.00,,,0.00,meteohub,2013-01-13 02:45:00,
2013-01-12 18:50:00,44.1,34.5,30.14,NNW,347,0.0,1.0,69,0.00,,,0.00,meteohub,2013-01-13 02:50:00,
2013-01-12 18:56:00,44.1,34.5,30.14,NNW,347,0.0,1.0,69,0.00,,,0.00,meteohub,2013-01-13 02:56:00,
2013-01-12 19:01:00,44.1,34.5,30.14,NNW,347,0.0,1.0,69,0.00,,,0.00,meteohub,2013-01-13 03:01:00,
2013-01-12 19:06:00,44.2,34.7,30.14,NNW,347,0.0,1.0,69,0.00,,,0.00,meteohub,2013-01-13 03:06:00,
2013-01-12 19:11:00,44.2,34.7,30.14,NNW,347,0.0,1.0,69,0.00,,,0.00,meteohub,2013-01-13 03:11:00,
2013-01-12 19:16:00,44.2,34.7,30.14,NNW,347,0.0,1.0,69,0.00,,,0.00,meteohub,2013-01-13 03:16:00,
2013-01-12 19:21:00,44.1,34.5,30.14,NNW,347,0.0,1.0,69,0.00,,,0.00,meteohub,2013-01-13 03:21:00,
2013-01-12 19:26:00,43.9,34.7,30.15,NNW,347,0.0,0.0,70,0.00,,,0.00,meteohub,2013-01-13 03:26:00,
2013-01-12 19:32:00,44.2,35.1,30.14,NNW,347,0.0,0.0,70,0.00,,,0.00,meteohub,2013-01-13 03:32:00,
2013-01-12 19:37:00,44.2,35.1,30.15,NNW,347,0.0,1.0,70,0.00,,,0.00,meteohub,2013-01-13 03:37:00,
2013-01-12 19:42:00,44.1,34.9,30.15,NNW,347,0.0,1.0,70,0.00,,,0.00,meteohub,2013-01-13 03:42:00,
2013-01-12 19:47:00,43.9,34.7,30.15,NNW,347,0.0,1.0,70,0.00,,,0.00,meteohub,2013-01-13 03:47:00,
2013-01-12 19:52:00,44.1,35.2,30.15,NNW,347,0.0,1.0,71,0.00,,,0.00,meteohub,2013-01-13 03:52:00,
2013-01-12 19:57:00,43.9,35.1,30.15,NNW,347,0.0,1.0,71,0.00,,,0.00,meteohub,2013-01-13 03:57:00,
2013-01-12 20:02:00,43.9,35.1,30.15,NNW,347,0.0,1.0,71,0.00,,,0.00,meteohub,2013-01-13 04:02:00,
2013-01-12 20:07:00,43.9,35.1,30.15,NNW,347,0.0,1.0,71,0.00,,,0.00,meteohub,2013-01-13 04:07:00,
2013-01-12 20:12:00,43.9,35.1,30.15,NNW,347,0.0,1.0,71,0.00,,,0.00,meteohub,2013-01-13 04:12:00,
2013-01-12 20:17:00,43.9,35.1,30.15,NNW,347,0.0,1.0,71,0.00,,,0.00,meteohub,2013-01-13 04:17:00,
2013-01-12 20:22:00,43.7,34.9,30.15,NNW,347,0.0,1.0,71,0.00,,,0.00,meteohub,2013-01-13 04:22:00,
2013-01-12 20:27:00,43.3,34.9,30.15,NNW,347,0.0,1.0,72,0.00,,,0.00,meteohub,2013-01-13 04:27:00,
2013-01-12 20:32:00,43.2,34.7,30.15,NNW,347,0.0,1.0,72,0.00,,,0.00,meteohub,2013-01-13 04:32:00,
2013-01-12 20:37:00,42.6,34.5,30.15,NNW,347,0.0,1.0,73,0.00,,,0.00,meteohub,2013-01-13 04:37:00,
2013-01-12 20:42:00,42.4,34.7,30.15,NNW,338,1.0,1.0,74,0.00,,,0.00,meteohub,2013-01-13 04:42:00,
2013-01-12 20:47:00,42.1,34.3,30.14,NNW,338,0.0,1.0,74,0.00,,,0.00,meteohub,2013-01-13 04:47:00,
2013-01-12 20:52:00,41.9,34.5,30.14,NNW,338,1.0,1.0,75,0.00,,,0.00,meteohub,2013-01-13 04:52:00,
2013-01-12 20:57:00,41.5,34.2,30.14,NNW,339,0.0,1.0,75,0.00,,,0.00,meteohub,2013-01-13 04:57:00,
2013-01-12 21:01:00,41.4,34.0,30.14,NNW,338,0.0,1.0,75,0.00,,,0.00,meteohub,2013-01-13 05:01:00,
2013-01-12 21:02:00,41.2,33.8,30.14,NNW,338,0.0,1.0,75,0.00,,,0.00,meteohub,2013-01-13 05:02:00,
2013-01-12 21:03:00,41.2,34.2,30.14,NNW,338,0.0,1.0,76,0.00,,,0.00,meteohub,2013-01-13 05:03:00,
2013-01-12 21:08:00,41.2,34.2,30.14,NNW,338,0.0,1.0,76,0.00,,,0.00,meteohub,2013-01-13 05:08:00,
2013-01-12 21:13:00,41.2,34.2,30.15,NNW,339,0.0,1.0,76,0.00,,,0.00,meteohub,2013-01-13 05:13:00,
2013-01-12 21:18:00,40.8,33.8,30.15,NNW,338,0.0,1.0,76,0.00,,,0.00,meteohub,2013-01-13 05:18:00,
2013-01-12 21:23:00,40.8,34.2,30.15,NNW,338,0.0,1.0,77,0.00,,,0.00,meteohub,2013-01-13 05:23:00,
2013-01-12 21:29:00,40.5,33.8,30.15,NNW,338,0.0,1.0,77,0.00,,,0.00,meteohub,2013-01-13 05:29:00,
2013-01-12 21:34:00,40.3,34.0,30.15,NW,326,0.0,1.0,78,0.00,,,0.00,meteohub,2013-01-13 05:34:00,
2013-01-12 21:39:00,40.3,34.0,30.15,NW,324,0.0,1.0,78,0.00,,,0.00,meteohub,2013-01-13 05:39:00,
2013-01-12 21:44:00,40.1,34.2,30.15,NW,324,0.0,1.0,79,0.00,,,0.00,meteohub,2013-01-13 05:44:00,
2013-01-12 21:49:00,40.3,34.3,30.15,NW,324,0.0,1.0,79,0.00,,,0.00,meteohub,2013-01-13 05:49:00,
2013-01-12 21:54:00,40.3,34.5,30.15,NW,324,0.0,1.0,80,0.00,,,0.00,meteohub,2013-01-13 05:54:00,
2013-01-12 21:59:00,40.5,35.1,30.15,NW,324,0.0,1.0,81,0.00,,,0.00,meteohub,2013-01-13 05:59:00,
2013-01-12 22:04:00,40.6,34.9,30.15,NW,325,1.0,1.0,80,0.00,,,0.00,meteohub,2013-01-13 06:04:00,
2013-01-12 22:09:00,40.5,35.1,30.16,NNW,348,1.0,1.0,81,0.00,,,0.00,meteohub,2013-01-13 06:09:00,
2013-01-12 22:14:00,40.5,35.1,30.16,WNW,290,0.0,1.0,81,0.00,,,0.00,meteohub,2013-01-13 06:14:00,
2013-01-12 22:20:00,40.5,35.1,30.16,WNW,294,0.0,1.0,81,0.00,,,0.00,meteohub,2013-01-13 06:20:00,
2013-01-12 22:25:00,40.3,34.9,30.16,WNW,294,0.0,1.0,81,0.00,,,0.00,meteohub,2013-01-13 06:25:00,
2013-01-12 22:30:00,40.8,36.1,30.16,NW,320,0.0,1.0,83,0.00,,,0.00,meteohub,2013-01-13 06:30:00,
2013-01-12 22:35:00,41.9,36.5,30.17,NNE,20,1.0,4.0,81,0.00,,,0.00,meteohub,2013-01-13 06:35:00,
2013-01-12 22:40:00,42.4,35.8,30.17,ESE,115,2.0,4.0,77,0.00,,,0.00,meteohub,2013-01-13 06:40:00,
2013-01-12 22:45:00,42.6,35.6,30.17,ENE,78,2.0,5.0,76,0.00,,,0.00,meteohub,2013-01-13 06:45:00,
2013-01-12 22:50:00,42.8,36.5,30.17,NNE,19,4.0,8.0,78,0.00,,,0.00,meteohub,2013-01-13 06:50:00,
2013-01-12 22:55:00,43.0,36.3,30.17,ENE,69,3.0,8.0,77,0.00,,,0.00,meteohub,2013-01-13 06:55:00,
2013-01-12 23:00:00,43.0,35.6,30.17,NNE,19,4.0,8.0,75,0.00,,,0.00,meteohub,2013-01-13 07:00:00,
2013-01-12 23:05:00,43.0,35.6,30.17,NE,47,1.0,7.0,75,0.00,,,0.00,meteohub,2013-01-13 07:05:00,
2013-01-12 23:10:00,42.6,35.6,30.18,NE,44,3.0,7.0,76,0.00,,,0.00,meteohub,2013-01-13 07:10:00,
2013-01-12 23:16:00,42.6,35.6,30.18,NNE,16,3.0,4.0,76,0.00,,,0.00,meteohub,2013-01-13 07:16:00,
2013-01-12 23:21:00,42.6,35.6,30.18,NNW,342,2.0,5.0,76,0.00,,,0.00,meteohub,2013-01-13 07:21:00,
2013-01-12 23:26:00,42.6,35.2,30.18,NW,306,1.0,5.0,75,0.00,,,0.00,meteohub,2013-01-13 07:26:00,
2013-01-12 23:31:00,42.4,35.4,30.18,North,1,0.0,5.0,76,0.00,,,0.00,meteohub,2013-01-13 07:31:00,
2013-01-12 23:36:00,42.1,35.1,30.19,NW,316,0.0,3.0,76,0.00,,,0.00,meteohub,2013-01-13 07:36:00,
2013-01-12 23:41:00,41.5,34.5,30.19,WNW,300,0.0,2.0,76,0.00,,,0.00,meteohub,2013-01-13 07:41:00,
2013-01-12 23:46:00,40.8,34.5,30.19,WNW,302,0.0,2.0,78,0.00,,,0.00,meteohub,2013-01-13 07:46:00,
2013-01-12 23:51:00,40.3,34.3,30.19,NNW,332,1.0,2.0,79,0.00,,,0.00,meteohub,2013-01-13 07:51:00,
2013-01-12 23:56:00,39.9,33.6,30.19,NNW,336,1.0,2.0,78,0.00,,,0.00,meteohub,2013-01-13 07:56:00,